sat.trackr.live / text

‹ back to catalog

UNKNOWN

NORAD 85373

UNKNOWN UNKNOWN UNKNOWN

§ Identity

Operator
Country
Launch date
Launch site
Launch vehicle
Mass (kg)
RCS (m²)

External: N2YO · Heavens-Above

§ Orbital elements

Epoch: 2026-09-18T11:46:22.812384Z

Period
102.77 min
Inclination
100.4122°
Eccentricity
0.0049276
Mean motion
14.01178577 rev/d
Perigee alt
853.9 km
Apogee alt
925.5 km
Semi-major
7,267.9 km
B*
1.2722e-3
RAAN
341.4227°
Arg perigee
221.2119°
Mean anomaly
151.3753°
Rev number
65,129

§ Raw data

UNKNOWN1 85373U          26261.49054181  .00001876  00000+0  12722-2 0  99922 85373 100.4122 341.4227 0049276 221.2119 151.3753 14.01178577651296

JSON: /api/v1/satellites/85373 · /tle

For live sub-satellite position, see the globe view (requires WebGL).

§ Visibility from observer

Set your observer location to see the next 7 days of passes ≥ 10°. The values pass through the URL so the page stays shareable.

No JS? Fill the form by hand. The geolocation button needs JavaScript.